| time (UTC) | temp C | wind direction | speed KPH | gust KPH | rain 1hr cm | rain 24hr cm | rain mn cm | humidity % | barometer mb |
| 20260509201148 | 31 | 215 | 3.2 | 14.5 | 0.00 | 0.00 | 0.00 | 62 | 1008.3 |
| 20260509200148 | 31 | 215 | 1.6 | 8.0 | 0.00 | 0.00 | 0.00 | 61 | 1008.3 |
| 20260509195223 | 31 | 155 | 1.6 | 14.5 | 0.00 | 0.00 | 0.00 | 61 | 1008.5 |
| 20260509194200 | 30 | 250 | 6.4 | 14.5 | 0.00 | 0.00 | 0.00 | 63 | 1008.6 |
| 20260509193128 | 30 | 225 | 6.4 | 12.9 | 0.00 | 0.00 | 0.00 | 65 | 1008.8 |
| 20260509192208 | 29 | 36 | 3.2 | 12.9 | 0.00 | 0.00 | 0.00 | 66 | 1008.9 |
| 20260509191237 | 30 | 153 | 4.8 | 11.3 | 0.00 | 0.00 | 0.00 | 64 | 1008.9 |
| 20260509190206 | 30 | 167 | 6.4 | 12.9 | 0.00 | 0.00 | 0.00 | 65 | 1009.0 |
| 20260509185144 | 30 | 254 | 1.6 | 11.3 | 0.00 | 0.00 | 0.00 | 64 | 1009.0 |
| 20260509184216 | 30 | 183 | 3.2 | 12.9 | 0.00 | 0.00 | 0.00 | 65 | 1009.1 |
| 20260509182150 | 29 | 248 | 3.2 | 9.7 | 0.00 | 0.00 | 0.00 | 70 | 1009.4 |
| 20260509181127 | 28 | 245 | 4.8 | 9.7 | 0.00 | 0.00 | 0.00 | 69 | 1009.5 |
| 20260509180140 | 28 | 226 | 3.2 | 12.9 | 0.00 | 0.00 | 0.00 | 71 | 1009.6 |
| 20260509175219 | 27 | 163 | 3.2 | 12.9 | 0.00 | 0.00 | 0.00 | 75 | 1009.8 |
| 20260509174140 | 27 | 229 | 6.4 | 17.7 | 0.00 | 0.00 | 0.00 | 76 | 1010.0 |
| 20260509173219 | 27 | 179 | 6.4 | 12.9 | 0.00 | 0.00 | 0.00 | 77 | 1010.0 |
| 20260509172221 | 27 | 172 | 4.8 | 16.1 | 0.00 | 0.00 | 0.00 | 76 | 1010.1 |
| 20260509170830 | 27 | 143 | 6.4 | 14.5 | 0.00 | 0.00 | 0.00 | 77 | 1009.9 |
| 20260509170142 | 27 | 229 | 4.8 | 11.3 | 0.00 | 0.00 | 0.00 | 77 | 1010.0 |
| 20260509165223 | 27 | 259 | 4.8 | 12.9 | 0.00 | 0.00 | 0.00 | 77 | 1010.1 |
| 20260509164150 | 26 | 249 | 4.8 | 14.5 | 0.00 | 0.00 | 0.00 | 79 | 1010.1 |
| 20260509163126 | 27 | 207 | 6.4 | 12.9 | 0.00 | 0.00 | 0.00 | 78 | 1010.0 |
| 20260509161200 | 26 | 223 | 1.6 | 6.4 | 0.00 | 0.00 | 0.00 | 81 | 1009.9 |
| 20260509160153 | 25 | 184 | 1.6 | 8.0 | 0.00 | 0.00 | 0.00 | 85 | 1009.9 |
| 20260509155218 | 25 | 146 | 3.2 | 9.7 | 0.00 | 0.00 | 0.00 | 87 | 1010.0 |
| 20260509154132 | 25 | 222 | 4.8 | 9.7 | 0.00 | 0.00 | 0.00 | 87 | 1009.8 |
| 20260509153212 | 24 | 232 | 4.8 | 9.7 | 0.00 | 0.00 | 0.00 | 91 | 1009.9 |
| 20260509152132 | 23 | 203 | 3.2 | 9.7 | 0.00 | 0.00 | 0.00 | 93 | 1009.9 |
| 20260509151211 | 23 | 188 | 1.6 | 8.0 | 0.00 | 0.00 | 0.00 | 95 | 1009.9 |
| 20260509150207 | 23 | 250 | 1.6 | 3.2 | 0.00 | 0.00 | 0.00 | 95 | 1010.1 |
| 20260509145137 | 23 | 250 | 0.0 | 4.8 | 0.00 | 0.00 | 0.00 | 95 | 1010.2 |
| 20260509144158 | 22 | 250 | 0.0 | 3.2 | 0.00 | 0.00 | 0.00 | 95 | 1010.3 |
| 20260509143218 | 22 | 250 | 1.6 | 3.2 | 0.00 | 0.00 | 0.00 | 94 | 1010.4 |
| 20260509142156 | 22 | 250 | 1.6 | 8.0 | 0.00 | 0.00 | 0.00 | 94 | 1010.4 |
| 20260509141214 | 22 | 241 | 3.2 | 6.4 | 0.00 | 0.00 | 0.00 | 94 | 1010.4 |
| 20260509140918 | 22 | 192 | 1.6 | 8.0 | 0.00 | 0.00 | 0.00 | 94 | 1010.3 |
| 20260509135159 | 22 | 195 | 3.2 | 8.0 | 0.00 | 0.00 | 0.00 | 94 | 1010.2 |
| 20260509134229 | 22 | 213 | 1.6 | 6.4 | 0.00 | 0.00 | 0.00 | 95 | 1010.2 |
| 20260509133143 | 22 | 215 | 1.6 | 6.4 | 0.00 | 0.00 | 0.00 | 96 | 1010.1 |
| 20260509132212 | 22 | 215 | 3.2 | 6.4 | 0.00 | 0.00 | 0.00 | 96 | 1010.1 |
| 20260509131151 | 22 | 217 | 3.2 | 8.0 | 0.00 | 0.00 | 0.00 | 96 | 1010.2 |
| 20260509130154 | 22 | 167 | 3.2 | 6.4 | 0.00 | 0.00 | 0.00 | 97 | 1010.2 |
| 20260509125232 | 22 | 155 | 3.2 | 8.0 | 0.00 | 0.00 | 0.00 | 97 | 1010.1 |
| 20260509124133 | 22 | 229 | 1.6 | 8.0 | 0.00 | 0.00 | 0.00 | 97 | 1010.1 |
| 20260509123156 | 21 | 246 | 1.6 | 6.4 | 0.00 | 0.00 | 0.00 | 97 | 1010.0 |
| 20260509122204 | 21 | 210 | 3.2 | 4.8 | 0.00 | 0.00 | 0.00 | 97 | 1009.9 |
| 20260509121143 | 21 | 246 | 4.8 | 9.7 | 0.00 | 0.00 | 0.00 | 97 | 1009.6 |
| 20260509120138 | 21 | 197 | 0.0 | 6.4 | 0.00 | 0.00 | 0.00 | 97 | 1009.5 |
| 20260509115218 | 21 | 186 | 1.6 | 8.0 | 0.00 | 0.00 | 0.00 | 97 | 1009.5 |
| 20260509114138 | 21 | 182 | 3.2 | 8.0 | 0.00 | 0.00 | 0.00 | 97 | 1009.5 |
| 20260509113219 | 21 | 171 | 3.2 | 12.9 | 0.00 | 0.00 | 0.00 | 97 | 1009.2 |
| 20260509112152 | 21 | 161 | 6.4 | 9.7 | 0.00 | 0.00 | 0.00 | 97 | 1009.1 |
| 20260509111230 | 21 | 244 | 3.2 | 14.5 | 0.00 | 0.00 | 0.00 | 97 | 1008.8 |
| 20260509110128 | 21 | 170 | 6.4 | 14.5 | 0.00 | 0.00 | 0.00 | 97 | 1008.2 |
| 20260509105205 | 21 | 211 | 4.8 | 9.7 | 0.00 | 0.00 | 0.00 | 97 | 1008.4 |
| 20260509104212 | 21 | 206 | 3.2 | 16.1 | 0.00 | 0.00 | 0.00 | 96 | 1008.4 |
| 20260509103145 | 21 | 199 | 6.4 | 14.5 | 0.00 | 0.00 | 0.00 | 97 | 1008.4 |
| 20260509102214 | 21 | 232 | 4.8 | 11.3 | 0.00 | 0.00 | 0.00 | 97 | 1008.7 |
| 20260509101148 | 21 | 166 | 4.8 | 9.7 | 0.00 | 0.00 | 0.00 | 97 | 1008.8 |
| 20260509095206 | 21 | 202 | 4.8 | 11.3 | 0.00 | 0.00 | 0.00 | 96 | 1009.1 |
| 20260509092149 | 21 | 180 | 3.2 | 9.7 | 0.00 | 0.00 | 0.00 | 96 | 1009.2 |
| 20260509091123 | 21 | 180 | 3.2 | 6.4 | 0.00 | 0.00 | 0.00 | 95 | 1009.0 |
| 20260509090204 | 21 | 185 | 3.2 | 8.0 | 0.00 | 0.00 | 0.00 | 95 | 1008.9 |
| 20260509085212 | 21 | 217 | 4.8 | 11.3 | 0.00 | 0.00 | 0.00 | 95 | 1008.9 |
| 20260509084139 | 21 | 151 | 4.8 | 9.7 | 0.00 | 0.00 | 0.00 | 94 | 1009.1 |
| 20260509083219 | 21 | 208 | 3.2 | 8.0 | 0.00 | 0.00 | 0.00 | 94 | 1009.4 |
| 20260509082222 | 21 | 190 | 4.8 | 9.7 | 0.00 | 0.00 | 0.00 | 94 | 1009.6 |
| 20260509081155 | 21 | 179 | 4.8 | 9.7 | 0.00 | 0.00 | 0.00 | 93 | 1009.8 |
| 20260509080904 | 21 | 175 | 3.2 | 8.0 | 0.00 | 0.00 | 0.00 | 93 | 1009.8 |
| 20260509080220 | 21 | 355 | 1.6 | 4.8 | 0.00 | 0.00 | 0.00 | 93 | 1009.8 |
| 20260509075152 | 21 | 360 | 0.0 | 1.6 | 0.00 | 0.00 | 0.00 | 93 | 1010.2 |
| 20260509074202 | 21 | 360 | 0.0 | 3.2 | 0.00 | 0.00 | 0.00 | 93 | 1010.4 |
| 20260509073208 | 21 | 360 | 1.6 | 3.2 | 0.00 | 0.00 | 0.00 | 93 | 1010.1 |
| 20260509072145 | 21 | 360 | 0.0 | 3.2 | 0.00 | 0.00 | 0.00 | 93 | 1010.2 |
| 20260509071124 | 21 | 360 | 0.0 | 4.8 | 0.00 | 0.00 | 0.00 | 92 | 1010.2 |
| 20260509070146 | 21 | 42 | 1.6 | 8.0 | 0.00 | 0.00 | 0.00 | 92 | 1010.1 |
| 20260509065142 | 21 | 355 | 1.6 | 8.0 | 0.00 | 0.00 | 0.00 | 92 | 1010.0 |
| 20260509064131 | 21 | 355 | 3.2 | 6.4 | 0.00 | 0.00 | 0.00 | 91 | 1009.3 |
| 20260509063139 | 21 | 53 | 1.6 | 4.8 | 0.00 | 0.00 | 0.00 | 91 | 1010.1 |
| 20260509062127 | 22 | 58 | 3.2 | 11.3 | 0.00 | 0.00 | 0.00 | 90 | 1010.0 |
| 20260509061204 | 22 | 145 | 4.8 | 9.7 | 0.00 | 0.00 | 0.00 | 89 | 1010.1 |
| 20260509060132 | 22 | 126 | 1.6 | 4.8 | 0.00 | 0.00 | 0.00 | 88 | 1010.7 |
| 20260509055138 | 22 | 81 | 0.0 | 3.2 | 0.00 | 0.00 | 0.00 | 88 | 1010.8 |
| 20260509054126 | 22 | 81 | 0.0 | 1.6 | 0.00 | 0.00 | 0.00 | 88 | 1011.0 |
| 20260509053124 | 22 | 81 | 0.0 | 3.2 | 0.00 | 0.00 | 0.00 | 88 | 1011.1 |
| 20260509052153 | 22 | 169 | 0.0 | 4.8 | 0.00 | 0.00 | 0.00 | 88 | 1010.8 |
| 20260509051148 | 22 | 326 | 1.6 | 4.8 | 0.00 | 0.00 | 0.00 | 88 | 1010.8 |
| 20260509050912 | 22 | 325 | 1.6 | 3.2 | 0.00 | 0.00 | 0.00 | 88 | 1010.7 |
| 20260509050130 | 22 | 324 | 1.6 | 3.2 | 0.00 | 0.00 | 0.00 | 88 | 1010.6 |
| 20260509045222 | 22 | 227 | 1.6 | 6.4 | 0.00 | 0.00 | 0.00 | 87 | 1010.4 |
| 20260509044206 | 22 | 355 | 1.6 | 8.0 | 0.00 | 0.00 | 0.00 | 87 | 1010.1 |
| 20260509043238 | 22 | 143 | 1.6 | 6.4 | 0.00 | 0.00 | 0.00 | 87 | 1010.2 |
| 20260509042147 | 22 | 144 | 1.6 | 3.2 | 0.00 | 0.00 | 0.00 | 86 | 1010.1 |
| 20260509041150 | 22 | 121 | 1.6 | 3.2 | 0.00 | 0.00 | 0.00 | 86 | 1010.0 |
| 20260509035149 | 22 | 179 | 1.6 | 6.4 | 0.00 | 0.00 | 0.00 | 86 | 1009.6 |
| 20260509034211 | 22 | 170 | 1.6 | 4.8 | 0.00 | 0.00 | 0.00 | 85 | 1009.8 |
| 20260509033207 | 22 | 175 | 1.6 | 6.4 | 0.00 | 0.00 | 0.00 | 85 | 1009.9 |
| 20260509032239 | 22 | 158 | 1.6 | 8.0 | 0.00 | 0.00 | 0.00 | 84 | 1009.8 |
| 20260509031150 | 22 | 120 | 0.0 | 6.4 | 0.00 | 0.00 | 0.00 | 84 | 1009.6 |
| 20260509030230 | 23 | 185 | 1.6 | 9.7 | 0.00 | 0.00 | 0.00 | 83 | 1009.6 |
| 20260509025136 | 23 | 119 | 3.2 | 8.0 | 0.00 | 0.00 | 0.00 | 83 | 1009.2 |
| 20260509024201 | 23 | 148 | 1.6 | 6.4 | 0.00 | 0.00 | 0.00 | 82 | 1009.1 |
| 20260509023138 | 23 | 115 | 0.0 | 3.2 | 0.00 | 0.00 | 0.00 | 82 | 1009.0 |
| 20260509022148 | 23 | 115 | 0.0 | 4.8 | 0.00 | 0.00 | 0.00 | 82 | 1008.9 |
| 20260509021214 | 23 | 163 | 0.0 | 0.0 | 0.00 | 0.00 | 0.00 | 81 | 1008.7 |
| 20260509020930 | 23 | 165 | 0.0 | 0.0 | 0.00 | 0.00 | 0.00 | 81 | 1008.7 |
| 20260509020229 | 23 | 162 | 0.0 | 0.0 | 0.00 | 0.00 | 0.00 | 81 | 1008.8 |
| 20260509015219 | 23 | 204 | 0.0 | 6.4 | 0.00 | 0.00 | 0.00 | 80 | 1008.6 |
| 20260509014138 | 23 | 96 | 0.0 | 4.8 | 0.00 | 0.00 | 0.00 | 80 | 1008.4 |
| 20260509013217 | 23 | 67 | 0.0 | 4.8 | 0.00 | 0.00 | 0.00 | 79 | 1008.3 |
| 20260509011149 | 23 | 163 | 1.6 | 11.3 | 0.00 | 0.00 | 0.00 | 78 | 1008.1 |
| 20260509010220 | 23 | 121 | 3.2 | 11.3 | 0.00 | 0.00 | 0.00 | 77 | 1008.0 |
| 20260509005137 | 24 | 171 | 1.6 | 11.3 | 0.00 | 0.00 | 0.00 | 77 | 1008.0 |
| 20260509004218 | 24 | 192 | 3.2 | 9.7 | 0.00 | 0.00 | 0.00 | 76 | 1008.1 |
| 20260509003158 | 24 | 144 | 3.2 | 6.4 | 0.00 | 0.00 | 0.00 | 75 | 1008.0 |
| 20260509002219 | 25 | 125 | 3.2 | 6.4 | 0.00 | 0.00 | 0.00 | 74 | 1008.0 |
| 20260509001139 | 25 | 192 | 3.2 | 11.3 | 0.00 | 0.00 | 0.00 | 73 | 1007.8 |
| 20260509000148 | 25 | 174 | 4.8 | 11.3 | 0.00 | 0.00 | 0.00 | 73 | 1007.8 |
| 20260508235226 | 25 | 182 | 4.8 | 14.5 | 0.00 | 0.00 | 0.00 | 71 | 1007.8 |
| 20260508234241 | 25 | 117 | 4.8 | 12.9 | 0.00 | 0.00 | 0.00 | 71 | 1007.6 |
| 20260508233155 | 26 | 140 | 6.4 | 19.3 | 0.00 | 0.00 | 0.00 | 69 | 1007.9 |
| 20260508232148 | 26 | 145 | 4.8 | 14.5 | 0.00 | 0.00 | 0.00 | 69 | 1008.0 |
| 20260508231234 | 26 | 142 | 8.0 | 16.1 | 0.00 | 0.00 | 0.00 | 68 | 1008.1 |
| 20260508230915 | 26 | 296 | 9.7 | 16.1 | 0.00 | 0.00 | 0.00 | 68 | 1008.2 |
| 20260508230214 | 26 | 171 | 3.2 | 11.3 | 0.00 | 0.00 | 0.00 | 68 | 1008.3 |
| 20260508225145 | 25 | 98 | 3.2 | 8.0 | 0.00 | 0.00 | 0.00 | 69 | 1008.8 |
| 20260508224211 | 25 | 111 | 3.2 | 11.3 | 0.00 | 0.00 | 0.00 | 68 | 1009.2 |
| 20260508223132 | 26 | 138 | 3.2 | 9.7 | 0.00 | 0.00 | 0.00 | 67 | 1008.9 |
| 20260508222204 | 26 | 216 | 3.2 | 8.0 | 0.00 | 0.00 | 0.00 | 65 | 1009.2 |
| 20260508221135 | 26 | 110 | 4.8 | 9.7 | 0.00 | 0.00 | 0.00 | 64 | 1008.8 |
| 20260508220231 | 26 | 143 | 3.2 | 6.4 | 0.00 | 0.00 | 0.00 | 64 | 1009.0 |
| 20260508215244 | 26 | 142 | 1.6 | 4.8 | 0.00 | 0.00 | 0.00 | 64 | 1009.1 |
| 20260508213157 | 26 | 205 | 3.2 | 11.3 | 0.00 | 0.00 | 0.00 | 62 | 1009.2 |
| 20260508212208 | 27 | 184 | 3.2 | 11.3 | 0.00 | 0.00 | 0.00 | 60 | 1009.1 |
| 20260508211128 | 27 | 161 | 3.2 | 8.0 | 0.00 | 0.00 | 0.00 | 61 | 1009.1 |
| 20260508210222 | 27 | 200 | 3.2 | 8.0 | 0.00 | 0.00 | 0.00 | 62 | 1009.1 |
| 20260508204150 | 27 | 341 | 1.6 | 12.9 | 0.00 | 0.00 | 0.00 | 61 | 1009.3 |
| 20260508203128 | 27 | 117 | 0.0 | 8.0 | 0.00 | 0.00 | 0.00 | 63 | 1008.9 |